This demonstration page uses our WeatherBlox Daily Observations layout. Learn more.

Left ArrowRight Arrow

Hourly Observations for August 26, 2021

Temp ( °F °C ) Dew Point ( °F °C ) Humidity (%) Winds ( mph kmh ) Pressure ( in mb ) Visibility ( mi km ) Precip ( " mm )
12:54 am 00:54 Clear 79 26.1 71 21.7 77 77 ESE 7 11 30.03 1017 10 16 0.00 0.00
1:54 am 01:54 Clear 79 26.1 70 21.1 74 74 ESE 7 11 30.03 1017 10 16 0.00 0.00
2:54 am 02:54 Clear 79 26.1 69 20.6 72 72 SE 14 22 30.02 1017 10 16 0.00 0.00
3:54 am 03:54 Clear 80 26.7 69 20.6 69 69 SE 18 30 29.96 1015 10 16 0.00 0.00
4:54 am 04:54 Clear 79 26.1 71 21.7 77 77 SSE 13 20 29.94 1014 10 16 0.00 0.00
5:54 am 05:54 Clear 78 25.6 71 21.7 79 79 S 13 20 29.94 1014 10 16 0.00 0.00
6:54 am 06:54 Sunny 77 25 71 21.7 82 82 S 13 20 29.96 1015 10 16 0.00 0.00
7:54 am 07:54 Sunny 78 25.6 71 21.7 79 79 NNW 8 13 30.01 1016 10 16 0.00 0.00
8:54 am 08:54 Sunny 78 25.6 71 21.7 79 79 ENE 7 11 30.01 1016 10 16 0.00 0.00
9:54 am 09:54 Sunny 82 27.8 71 21.7 69 69 Calm 30.02 1017 10 16 0.00 0.00
10:54 am 10:54 Sunny 86 30 71 21.7 61 61 Calm 29.99 1016 10 16 0.00 0.00
11:54 am 11:54 Sunny 89 31.7 71 21.7 55 55 E 5 7 29.98 1015 10 16 0.00 0.00
12:54 pm 12:54 Sunny 92 33.3 71 21.7 51 51 SE 9 15 29.96 1014 10 16 0.00 0.00
1:54 pm 13:54 Sunny 96 35.6 71 21.7 44 44 SE 14 22 29.93 1014 10 16 0.00 0.00
2:54 pm 14:54 Sunny 98 36.7 70 21.1 40 40 S 14 22 29.91 1013 10 16 0.00 0.00
3:54 pm 15:54 Sunny 100 37.8 69 20.6 37 37 SSW 10 17 29.89 1012 10 16 0.00 0.00
4:54 pm 16:54 Mostly Sunny 99 37.2 69 20.6 38 38 S 14 22 29.87 1012 10 16 0.00 0.00
5:54 pm 17:54 Sunny 98 36.7 68 20 38 38 S 13 20 29.86 1011 10 16 0.00 0.00
6:54 pm 18:54 Sunny 96 35.6 65 18.3 36 36 S 14 22 29.85 1011 10 16 0.00 0.00
7:54 pm 19:54 Sunny 90 32.2 67 19.4 47 47 SSE 10 17 29.84 1010 10 16 0.00 0.00
8:54 pm 20:54 Clear 89 31.7 69 20.6 52 52 SSE 15 24 29.86 1011 10 16 0.00 0.00
9:54 pm 21:54 Clear 87 30.6 69 20.6 55 55 S 17 28 29.88 1012 10 16 0.00 0.00
10:54 pm 22:54 Clear 84 28.9 68 20 59 59 SSE 15 24 29.88 1012 10 16 0.00 0.00
11:54 pm 23:54 Clear 82 27.8 67 19.4 60 60 S 16 26 29.86 1011 10 16 0.00 0.00

Powered by AerisWeather